loading
DOY 175 | 2024-06-23T12:12:32Z

STARLINK-31966, 59944

Orbit data source: Space-Track

STARLINK-31966, 59944 is a payload satellite owned by SpaceX/Seattle (US) in LEO that was launched on Sat, 01 Jun 2024 UTC via a Falcon 9 launch vehicle from the Air Force Eastern Test Range (AFETR). Payloads include a variety of satellites, spacecraft, and rockets equipped with specific instruments for various scientific and technological missions. These include communications satellites like Starlink; space stations such as the ISS; scientific satellites like the Hubble; Earth observation satellites from companies like Planet Labs, Umbra, and HawkEye 360; GPS; miniature CubeSats for education and research; and military/defense satellites.

Loading next visibility...
Loading greatness...
STARLINK-31966 details
NORAD ID59944
COSPAR ID
2024-106Y
Orbit
LEO
Last TLE update6 hours ago
Origin
Flag of USSpaceX/Seattle (US)
ManufacturerSpaceX/Seattle
BusStarlink V2M
MotorUnknown
Mass750 kg wet, ~700 kg dry
Launch date (UTC)
2024-06-01 (3 weeks ago)
Launch vehicle
Falcon 9
Launch site
Air Force Eastern Test Range (AFETR)
Object type
Payload
Rocket body
Debris
Radar Cross SectionLarge (>1 m²)
Predictive object data (real-time)
Latitude-42.33554°
Longitude-149.38462°
Altitude393.656 km
Speed7.675 km/s
Apparent Right ascension12h 46m 24s
Apparent Declination-42° 58' 04"
Sunlit
Object is in full shadow
Predictive observer data (real-time)
Local Sidereal Time23:20:41
Azimuth252.227° W
Elevation-73.695°
Doppler factor1
Orbital elements
Apogee381.773 km
Perigee379.977 km
Semi-major axis6,759.012 km
Eccentricity0.0001329
Inclination42.9994°
RAAN290.3644°
Arg. of periapsis265.536°
True anomaly357.60696°
Mean anomaly357.6076°
Mean motion3.90587 °/min
BSTAR-0.020369
Period92.17 mins
Definitive object data (Epoch: 2024-06-23T06:00:00.999Z)
Latitude-42.77994°
Longitude-170.86067°
Altitude391.169 km
Speed7.676 km/s
True Right ascension12h 44m 10s
True Declination-42° 35' 57"
Sunlit
Object was in full shadow at TLE epoch
TLE from 6 hours ago
0 STARLINK-31966
1 59944U 24106Y   24175.25001157 -.01676130  00000-0 -20369-1 0  9991
2 59944  42.9994 290.3644 0001329 265.5360 357.6076 15.63033591  4712
Epoch: 2024-06-23T06:00Z
No data available

STARLINK-31966 Visibility forecast

Observer location: 39.9160978°, -105.1181434, 0m alt.

STARLINK-31966 is not visible in the next 10 days
Span
Click to sort rows by Start time (UTC) header in descending order
Start Az.
Max El. time (UTC)
Max El. Az.
Max El.
End time (UTC)
End Az.